CW6893 Weather Reports


time (UTC)temp
F
wind
direction
speed
knots
gust
knots
rain 1hr
in
rain 24hr
in
rain mn
in
humidity
%
barometer
mb
20260506033038 71 322 2.6 5.2 0.00 0.00 0.00 54 1012.6
20260506031539 71 35 0.0 2.6 0.00 0.00 0.00 44 1012.4
20260506030044 73 36 0.9 3.5 0.00 0.00 0.00 42 1012.3
20260506024548 75 36 1.7 4.3 0.00 0.00 0.00 40 1012.1
20260506023039 76 35 1.7 5.2 0.00 0.00 0.00 38 1012.0
20260506021537 78 40 1.7 5.2 0.00 0.00 0.00 37 1011.9
20260506020040 78 49 5.2 10.4 0.00 0.00 0.00 38 1011.9
20260506014537 80 38 5.2 10.4 0.00 0.00 0.00 35 1011.8
20260506013038 82 36 0.9 4.3 0.00 0.00 0.00 34 1011.7
20260506011601 82 35 2.6 6.1 0.00 0.00 0.00 34 1011.7
20260506010040 81 352 1.7 11.3 0.00 0.00 0.00 33 1011.7
20260506004554 82 28 0.9 7.0 0.00 0.00 0.00 33 1011.6
20260506003037 81 44 2.6 9.6 0.00 0.00 0.00 35 1011.6
20260506001537 81 31 0.9 12.2 0.00 0.00 0.00 34 1011.6
20260506000110 81 57 4.3 11.3 0.00 0.00 0.00 33 1011.6
20260505234545 81 59 7.0 11.3 0.00 0.00 0.00 31 1011.7
20260505233038 82 63 3.5 11.3 0.00 0.00 0.00 31 1011.8
20260505231539 83 12 0.9 6.1 0.00 0.00 0.00 32 1011.8
20260505230057 82 40 6.1 12.2 0.00 0.00 0.00 31 1011.9
20260505224542 82 34 1.7 9.6 0.00 0.00 0.00 34 1011.9
20260505223043 82 24 4.3 10.4 0.00 0.00 0.00 34 1012.0
20260505221541 82 17 0.9 9.6 0.00 0.00 0.00 34 1012.1
20260505220040 81 35 4.3 9.6 0.00 0.00 0.00 34 1012.2
20260505214537 80 0 2.6 10.4 0.00 0.00 0.00 37 1012.2
20260505213043 80 32 5.2 11.3 0.00 0.00 0.00 36 1012.4
20260505211541 80 0 4.3 12.2 0.00 0.00 0.00 40 1012.4
20260505210039 78 51 4.3 13.0 0.00 0.00 0.00 40 1012.5
20260505204545 79 26 1.7 9.6 0.00 0.00 0.00 41 1012.5
20260505203051 79 28 4.3 9.6 0.00 0.00 0.00 41 1012.8
20260505201540 78 5 1.7 7.8 0.00 0.00 0.00 43 1012.8
20260505200046 76 5 2.6 9.6 0.00 0.00 0.00 45 1013.0
20260505194551 75 360 4.3 7.8 0.00 0.00 0.00 45 1013.1
20260505193039 75 360 1.7 9.6 0.00 0.00 0.00 46 1013.1
20260505191547 74 352 2.6 8.7 0.00 0.00 0.00 47 1013.3
20260505190040 73 351 2.6 7.0 0.00 0.00 0.00 48 1013.3
20260505184538 72 350 0.9 5.2 0.00 0.00 0.00 50 1013.4
20260505183043 71 349 0.9 7.8 0.00 0.00 0.00 51 1013.4
20260505181540 71 0 0.9 3.5 0.00 0.00 0.00 50 1013.4
20260505180047 70 340 1.7 5.2 0.00 0.00 0.00 52 1013.3
20260505174540 68 0 0.9 3.5 0.00 0.00 0.00 57 1013.2
20260505173037 66 272 2.6 3.5 0.00 0.00 0.00 56 1013.1
20260505171554 65 292 0.9 6.1 0.00 0.00 0.00 59 1013.1
20260505170043 64 290 3.5 7.8 0.00 0.00 0.00 60 1013.2
20260505164538 63 251 2.6 6.1 0.00 0.00 0.00 61 1013.1
20260505163038 62 238 2.6 7.8 0.00 0.00 0.00 64 1013.2
20260505161551 61 259 2.6 7.0 0.00 0.00 0.00 65 1013.2
20260505153041 59 261 1.7 6.1 0.00 0.00 0.00 69 1013.2
20260505151538 57 260 2.6 6.1 0.00 0.00 0.00 71 1013.1
20260505124552 50 225 0.9 2.6 0.00 0.00 0.00 83 1012.0
20260505123053 50 225 0.0 2.6 0.00 0.00 0.00 82 1011.8
20260505121611 51 213 0.9 2.6 0.00 0.00 0.00 79 1011.8
20260505120047 51 204 0.0 3.5 0.00 0.00 0.00 77 1011.7
20260505114544 51 0 0.9 2.6 0.00 0.00 0.00 74 1011.7
20260505113054 52 204 0.9 1.7 0.00 0.00 0.00 72 1011.7
20260505111542 52 0 0.9 3.5 0.00 0.00 0.00 68 1011.6
20260505101542 56 298 1.7 3.5 0.00 0.00 0.00 73 1011.4
20260505100051 57 312 0.9 2.6 0.00 0.00 0.00 76 1011.3
20260505094545 58 298 1.7 3.5 0.00 0.00 0.00 74 1011.2
20260505093044 58 332 0.9 4.3 0.00 0.00 0.00 74 1011.2
20260505091549 59 328 1.7 7.0 0.00 0.00 0.00 73 1011.2
20260505090054 59 328 1.7 4.3 0.00 0.00 0.00 73 1011.2
20260505084540 59 348 1.7 7.0 0.00 0.00 0.00 72 1011.2
20260505083046 59 325 1.7 7.0 0.00 0.00 0.00 72 1011.2
20260505081546 59 352 2.6 7.0 0.00 0.00 0.00 72 1011.1
20260505080050 59 333 2.6 8.7 0.00 0.00 0.00 70 1011.2
20260505074542 60 309 3.5 10.4 0.00 0.00 0.00 70 1011.0
20260505073052 60 317 1.7 11.3 0.00 0.00 0.00 69 1011.1
20260505071542 60 311 3.5 11.3 0.00 0.00 0.00 68 1011.0
20260505070044 60 324 3.5 10.4 0.00 0.00 0.00 66 1010.9
20260505064540 61 338 3.5 11.3 0.00 0.00 0.00 64 1010.9
20260505063050 61 336 3.5 9.6 0.00 0.00 0.00 61 1010.8
20260505061539 62 337 3.5 10.4 0.00 0.00 0.00 59 1010.7
20260505060039 63 336 5.2 12.2 0.00 0.00 0.00 55 1010.5
20260505054558 63 325 4.3 10.4 0.00 0.00 0.00 54 1010.5
20260505053047 63 333 4.3 14.8 0.00 0.00 0.00 52 1010.4
20260505051543 64 331 7.0 18.2 0.00 0.00 0.00 50 1010.4
20260505041550 66 325 6.1 14.8 0.00 0.00 0.00 39 1010.0
20260505040044 67 335 7.8 15.6 0.00 0.00 0.00 38 1010.0
20260505034537 67 321 7.0 15.6 0.00 0.00 0.00 38 1009.6